DECAYED
Showing default

CAPELLA-10 (WHITNEY), 55909 (Decayed)

Orbit data source: Space-Track

CAPELLA-10 (WHITNEY), 55909 was a payload satellite owned by Capella Space (US) in LEO that was launched on Thu, 16 Mar 2023 UTC via an ELECTRON launch vehicle from the Wallops Island (WLPIS). Payload-class satellites include a variety of spacecraft equipped with specific instruments for various scientific and technological missions. These include communications satellites like Starlink; space stations such as the ISS; scientific satellites like the Hubble; Earth observation satellites from companies like Planet Labs, Umbra, and HawkEye 360; GPS; miniature CubeSats for education and research; and military/defense satellites.

Not visible in the next 10 days
Identifier
55909, 2023-035B
Orbit
Decayed
Country
Flag of USUS
Related business
Manufacturer
Capella Space
Mission
Decayed Commercial Radar Imaging
Bus & Motor
SEQUOIA, Unknown motor
Mass
112 kg wet, ~90 kg dry
Launch date (UTC)
2023-03-16 (3 years ago)
Launch vehicle
ELECTRON
Launch site
Wallops Island (WLPIS)
Object type
Payload
Rocket body
Debris
Shape & HBR
Box + 2 Pan + 1 Dish + 1 Rod, 1.8 m
Radar Cross Section
0.463 m², Large (>1 m²)

Expand to show TLE details & history
Last TLE update: 1 year ago

TLE from 1 year ago
0 CAPELLA-10 (WHITNEY)
1 55909U 23035B   25125.01565429  .17941359  95548-5  38960-2 0  9991
2 55909  43.9665  62.2216 0011327 191.8989 221.0678 16.29394026117828
Epoch: 2025-05-05T00:22Z
TLE epoch observation values (Epoch: 2025-05-05T00:22:32.530Z)
Latitude
33.74402°
Longitude
-123.0295°
Altitude
201.066 km
Speed
7.788 km/s
True Right ascension
07h 02m 57s
True Declination
33° 34' 19"
Sunlit
Object was in daylight at epoch
Visualization orbit readout
Latitude
Unknown
Longitude
Unknown
Altitude
Unknown
Speed
Unknown
Apparent Right ascension
Unknown
Apparent Declination
Unknown
Sunlit
N/A
Visualization observer readout
Local Sidereal Time
21:25:41
Azimuth
Unknown
Elevation
Unknown
Doppler factor
Unknown
Orbital elements
Apogee altitude
203.476 km
Perigee altitude
188.583 km
Semi-major axis
6,574.167 km
Eccentricity
0.00113
Inclination
43.9665°
RAAN
62.2216°
Arg. of periapsis
191.8989°
True anomaly
220.98262°
Mean anomaly
221.0678°
Eccentric anomaly
221.0252°
Mean motion
4.07176 °/min
Orbital period
88.41 mins
BSTAR
0.003896
Loading maneuver chart data...
Computing Atmospheric mass density...
Loading historical data...
Loading historical data...
Loading historical data...
Loading historical data...
Loading historical data...
Loading historical data...
Loading historical data...
Other satellites on launch #35 in the year 2023 (2023-03-16 UTC)

Documentation

Showing up to 5 results
|